[[{"header":{"parameterUnit":"m.s-1","parameterCategory":1,"la1":30.2992,"la2":30.254,"lo1":-89.0895,"lo2":-89.0443,"dy":0.0025,"dx":0.0025,"nx":19,"ny":19,"refTime":"2026-03-09T09:00:00:Z","depth":0,"parameterNumber":2,"parameterNumberName":"U-component_of_WINDS"},"data":[0,0,0,-0.6,-0.5999,-0.5931,-0.5931,-0.5856,-0.5855,0,0,0,0,0,0,0,0,0,0,0,-0.6027,-0.6027,-0.6,-0.5999,-0.5931,-0.593,-0.5856,-0.5855,0,0,0,0,0,0,0,0,0,0,0,-0.6028,-0.6027,-0.6027,-0.5999,-0.5931,-0.593,-0.5856,-0.5903,0,0,0,0,0,0,0,0,0,0,-0.5967,-0.5999,-0.6027,-0.6027,-0.5998,-0.5931,-0.593,-0.5905,-0.59,-0.5891,0,-0.5886,0,-0.5869,-0.5851,-0.585,0,0,0,-0.5994,-0.6003,-0.5978,-0.6027,-0.5998,-0.5931,-0.596,-0.5902,-0.5896,-0.5885,-0.5884,-0.5881,-0.5868,-0.585,-0.585,-0.5818,-0.5819,0,0,-0.5997,-0.6019,-0.5982,-0.5975,-0.5986,-0.5962,-0.5958,-0.5898,-0.5899,-0.5884,-0.5879,-0.5867,-0.585,-0.5849,-0.5818,-0.5818,0,0,0,-0.6012,-0.6022,-0.5998,-0.5978,-0.5965,-0.596,-0.5955,-0.5902,-0.5892,-0.5878,-0.5866,-0.585,-0.5849,-0.5818,-0.5818,-0.5844,0,0,0,-0.6014,-0.603,-0.6,-0.6013,-0.5967,-0.5933,-0.5961,-0.5897,-0.5889,-0.5866,-0.5849,-0.5848,-0.5818,-0.5818,-0.5843,-0.5853,0,0,0,-0.6029,-0.6032,-0.6025,-0.6014,-0.5986,-0.5933,-0.592,-0.5895,-0.5882,-0.585,-0.5848,-0.5818,-0.5818,-0.5842,-0.5851,-0.5851,0,0,0,-0.6053,-0.6048,-0.6025,-0.6016,-0.5986,-0.595,-0.592,-0.5892,-0.5868,-0.5849,-0.5818,-0.5818,-0.5842,-0.585,-0.585,-0.5854,-0.5858,0,0,-0.6059,-0.605,-0.6043,-0.602,-0.5993,-0.5958,-0.5935,-0.5893,-0.587,-0.5837,-0.5836,-0.5844,-0.5851,-0.585,-0.5872,-0.5875,0,0,0,-0.6052,-0.6047,-0.6036,-0.6014,-0.5982,-0.5955,-0.5914,-0.5898,-0.5869,-0.5858,-0.5843,-0.5846,-0.5845,-0.5846,-0.5849,-0.5846,-0.582,-0.582,-0.582,-0.6093,-0.6064,-0.605,-0.6013,-0.5993,-0.5951,-0.5932,-0.5903,-0.588,-0.5877,-0.5867,-0.5884,-0.5886,-0.5887,-0.5885,-0.5867,-0.5867,-0.5867,-0.5867,-0.61,-0.6089,-0.6058,-0.6034,-0.6004,-0.5983,-0.5942,-0.5927,-0.5903,-0.5889,-0.5886,-0.5873,-0.5892,-0.5888,-0.5869,-0.5869,-0.5869,-0.5868,-0.5868,-0.6124,-0.6113,-0.6094,-0.606,-0.6037,-0.6,-0.5979,-0.5952,-0.5927,-0.5924,-0.591,-0.591,-0.5906,-0.592,-0.592,-0.592,-0.592,-0.592,-0.592,-0.6155,-0.6133,-0.6118,-0.6084,-0.6066,-0.604,-0.5999,-0.5981,-0.5954,-0.5936,-0.5936,-0.5914,-0.5899,-0.5896,-0.5921,-0.592,-0.592,-0.592,-0.592,-0.6173,-0.6165,-0.6142,-0.6125,-0.6082,-0.6061,-0.6027,-0.5994,-0.5975,-0.5966,-0.5944,-0.5937,-0.5926,-0.5923,-0.5921,-0.595,-0.595,-0.595,-0.595,-0.6192,-0.6184,-0.6155,-0.6129,-0.61,-0.6068,-0.6043,-0.6011,-0.5976,-0.5963,-0.5955,-0.5949,-0.5948,-0.5937,-0.5934,-0.5931,-0.5962,-0.5962,-0.5962,-0.6202,-0.6189,-0.6173,-0.6139,-0.6104,-0.6075,-0.6051,-0.6022,-0.5981,-0.5962,-0.5952,-0.5951,-0.5942,-0.594,-0.592,-0.5917,-0.5911,0,0]},{"header":{"parameterUnit":"m.s-1","parameterCategory":1,"la1":30.2992,"la2":30.254,"lo1":-89.0895,"lo2":-89.0443,"dy":0.0025,"dx":0.0025,"nx":19,"ny":19,"refTime":"2026-03-09T09:00:00:Z","depth":0,"parameterNumber":3,"parameterNumberName":"V-component_of_WINDS"},"data":[0,0,0,3.0508,3.0509,3.0552,3.0552,3.061,3.061,0,0,0,0,0,0,0,0,0,0,0,3.0496,3.0496,3.0508,3.0509,3.0552,3.0552,3.061,3.061,0,0,0,0,0,0,0,0,0,0,0,3.0496,3.0496,3.0497,3.0509,3.0552,3.0552,3.0609,3.0576,0,0,0,0,0,0,0,0,0,0,3.0534,3.0523,3.0496,3.0497,3.0509,3.0552,3.0552,3.0575,3.0578,3.0591,0,3.0602,0,3.0607,3.0614,3.0614,0,0,0,3.0508,3.052,3.0531,3.0497,3.051,3.0552,3.0532,3.0577,3.0581,3.0596,3.0603,3.0605,3.0608,3.0615,3.0615,3.0692,3.0693,0,0,3.0506,3.0504,3.0529,3.0534,3.0527,3.0531,3.0534,3.0579,3.0587,3.0603,3.0606,3.0609,3.0615,3.0615,3.0692,3.0693,0,0,0,3.0499,3.0502,3.0512,3.0532,3.054,3.0532,3.0535,3.0585,3.0588,3.0607,3.061,3.0615,3.0616,3.0692,3.0692,3.0711,0,0,0,3.0498,3.0499,3.0511,3.0511,3.0539,3.0562,3.054,3.0585,3.059,3.061,3.0615,3.0617,3.0691,3.0692,3.071,3.0721,0,0,0,3.0493,3.0498,3.0505,3.051,3.0529,3.0562,3.0568,3.0586,3.0592,3.0614,3.0617,3.0691,3.0692,3.0709,3.0719,3.0743,0,0,0,3.0487,3.0519,3.0505,3.0543,3.0529,3.0573,3.0567,3.06,3.0622,3.0616,3.0691,3.0692,3.0708,3.0717,3.0741,3.0763,3.0772,0,0,3.0527,3.0524,3.0547,3.0535,3.0582,3.0567,3.0617,3.0637,3.0641,3.0675,3.0677,3.071,3.0718,3.0742,3.0819,3.0826,0,0,0,3.0559,3.0575,3.0588,3.0609,3.0627,3.0644,3.0657,3.0665,3.0695,3.0658,3.0725,3.073,3.0744,3.0754,3.076,3.0773,3.0697,3.0697,3.0696,3.0613,3.0617,3.0656,3.0666,3.0686,3.0702,3.0719,3.0733,3.0729,3.0745,3.0756,3.0802,3.0814,3.0818,3.0832,3.0767,3.0767,3.0767,3.0767,3.0674,3.0698,3.0695,3.0732,3.0736,3.0767,3.0784,3.0781,3.0811,3.0793,3.0806,3.0787,3.0826,3.0838,3.0768,3.0768,3.0768,3.0768,3.0768,3.071,3.0723,3.0734,3.0767,3.0792,3.0801,3.0831,3.0833,3.0836,3.0848,3.0861,3.0861,3.0862,3.0854,3.0854,3.0854,3.0854,3.0855,3.0855,3.0745,3.0756,3.0781,3.0805,3.0821,3.0842,3.0859,3.0875,3.0893,3.0892,3.0892,3.0889,3.0828,3.0814,3.0857,3.0857,3.0856,3.0856,3.0856,3.0807,3.0794,3.0833,3.0849,3.0879,3.0905,3.0908,3.094,3.0953,3.0969,3.0963,3.0918,3.0915,3.091,3.0898,3.0961,3.0961,3.0961,3.0961,3.0839,3.0839,3.0881,3.0906,3.0932,3.0939,3.0985,3.1,3.1013,3.1023,3.1014,3.0998,3.0993,3.0993,3.0987,3.0976,3.1057,3.1057,3.1057,3.0879,3.0881,3.0919,3.0933,3.0957,3.0978,3.1022,3.1053,3.1065,3.1061,3.103,3.1026,3.1001,3.0992,3.0988,3.0978,3.0958,0,0]}]]